Location: Mat�lon
(46.2791°N, 7.1028°E)
Time: 16:40:08
(UTC+00:00)

USA 116 - Pass Details

Date: 18 September 2020
Orbit: 405 x 834 km, 97.9° (Epoch: 18 November)

Event Time Altitude Azimuth Distance (km) Brightness Sun altitude
Rises 18:17:48 0° 14° (NNE) 2,430 7.0 -7.9°
Reaches altitude 10° 18:19:45 10° 16° (NNE) 1,594 6.0 -8.3°
Maximum altitude 18:23:08 76° 102° (ESE) 503 3.4 -8.8°
Drops below altitude 10° 18:26:54 10° 190° (S) 1,762 6.3 -9.5°
Sets 18:29:07 0° 192° (SSW) 2,717 7.3 -9.8°
